EZY53LT EGGD-LIRP

Flight info

Callsign EZY53LT
Flight time N/A
Altitude 35000
Route YORQI DCT BIG DCT SANDY DCT MOTOX DCT LESDO DCT BUBLI DCT LUVAL DCT DEVDI DCT ODINA DCT SRN DCT ROBAS DCT MIVKI
Aircraft A21N/M-SDE3FGHIRWY/LB1

Departure

Time N/A
Airport Bristol Airport (EGGD)

Arrival

Time 2026-04-22 17:47
Airport Pisa International Airport (LIRP)
Time Latitude Longitude Altitude Speed Heading
2026-04-22 17:15 46.10346 8.65320 35125 ft 515 kts 145°
2026-04-22 17:16 46.04553 8.71059 35125 ft 512 kts 152°
2026-04-22 17:16 45.98294 8.76021 35131 ft 511 kts 155°
2026-04-22 17:17 45.92097 8.80812 35139 ft 511 kts 155°
2026-04-22 17:17 45.86052 8.85515 35144 ft 511 kts 155°
2026-04-22 17:18 45.80000 8.90225 35147 ft 512 kts 155°
2026-04-22 17:18 45.73745 8.95079 35148 ft 514 kts 154°
2026-04-22 17:19 45.62125 9.06581 35148 ft 526 kts 140°
2026-04-22 17:20 45.52062 9.21715 35151 ft 533 kts 132°
2026-04-22 17:21 45.44759 9.33230 35151 ft 533 kts 133°
2026-04-22 17:22 45.37254 9.44927 35151 ft 533 kts 133°
2026-04-22 17:23 45.30592 9.55267 35152 ft 533 kts 133°
2026-04-22 17:23 45.22795 9.66415 35137 ft 530 kts 146°
2026-04-22 17:24 45.16334 9.71265 35102 ft 521 kts 166°
2026-04-22 17:24 45.09379 9.73056 35057 ft 508 kts 184°
2026-04-22 17:25 45.02317 9.73162 35022 ft 507 kts 185°
2026-04-22 17:25 44.94121 9.73251 35005 ft 506 kts 184°
2026-04-22 17:26 44.88305 9.73382 34881 ft 499 kts 183°
2026-04-22 17:26 44.83734 9.73504 34311 ft 492 kts 183°
2026-04-22 17:26 44.81423 9.73566 33964 ft 488 kts 183°
2026-04-22 17:27 44.78092 9.73655 33551 ft 482 kts 183°
2026-04-22 17:27 44.74773 9.73743 33142 ft 476 kts 183°
2026-04-22 17:27 44.71500 9.73829 32740 ft 469 kts 183°
2026-04-22 17:27 44.67223 9.73942 32218 ft 461 kts 183°
2026-04-22 17:28 44.65062 9.73999 31954 ft 457 kts 183°
2026-04-22 17:28 44.61930 9.74081 31573 ft 451 kts 183°
2026-04-22 17:28 44.58838 9.74161 31199 ft 445 kts 183°
2026-04-22 17:28 44.54736 9.74269 30702 ft 437 kts 183°
2026-04-22 17:29 44.51764 9.74346 30342 ft 432 kts 183°
2026-04-22 17:29 44.49768 9.74399 30102 ft 428 kts 183°
2026-04-22 17:29 44.46806 9.74476 29743 ft 422 kts 183°
2026-04-22 17:29 44.42942 9.74577 29279 ft 415 kts 183°
2026-04-22 17:30 44.40073 9.74652 28932 ft 409 kts 183°
2026-04-22 17:30 44.38211 9.74700 28708 ft 406 kts 183°
2026-04-22 17:30 44.35404 9.74773 28369 ft 401 kts 183°
2026-04-22 17:30 44.31738 9.74869 27924 ft 394 kts 183°
2026-04-22 17:31 44.29931 9.74916 27705 ft 390 kts 183°
2026-04-22 17:31 44.27231 9.74986 27377 ft 385 kts 183°
2026-04-22 17:31 44.24566 9.75054 27051 ft 380 kts 183°
2026-04-22 17:31 44.21084 9.75144 26624 ft 373 kts 183°
2026-04-22 17:32 44.19361 9.75189 26412 ft 370 kts 183°
2026-04-22 17:32 44.15981 9.75276 25976 ft 364 kts 183°
2026-04-22 17:32 44.14297 9.75319 25731 ft 362 kts 183°
2026-04-22 17:32 44.11830 9.75381 25364 ft 359 kts 183°
2026-04-22 17:33 44.09333 9.75445 24991 ft 356 kts 183°
2026-04-22 17:33 44.06883 9.75507 24630 ft 353 kts 183°
2026-04-22 17:33 44.04440 9.75569 24264 ft 350 kts 183°
2026-04-22 17:33 44.01225 9.75652 23786 ft 346 kts 183°
2026-04-22 17:34 43.99634 9.75693 23549 ft 345 kts 183°
2026-04-22 17:34 43.97232 9.75755 23188 ft 342 kts 183°
2026-04-22 17:34 43.94890 9.75815 22834 ft 339 kts 183°
2026-04-22 17:34 43.91731 9.75895 22355 ft 336 kts 183°
2026-04-22 17:35 43.90200 9.75934 22123 ft 334 kts 183°
2026-04-22 17:35 43.87885 9.75994 21766 ft 331 kts 183°
2026-04-22 17:35 43.85596 9.76053 21402 ft 329 kts 183°
2026-04-22 17:35 43.82537 9.76127 20526 ft 340 kts 182°
2026-04-22 17:36 43.80928 9.76164 20006 ft 347 kts 182°
2026-04-22 17:36 43.78518 9.76223 19378 ft 352 kts 182°
2026-04-22 17:36 43.75295 9.76310 18851 ft 341 kts 182°
2026-04-22 17:36 43.73711 9.76353 18313 ft 341 kts 182°
2026-04-22 17:37 43.71339 9.76412 17304 ft 347 kts 182°
2026-04-22 17:37 43.68955 9.76472 16542 ft 343 kts 181°
2026-04-22 17:37 43.66592 9.76535 15881 ft 336 kts 181°
2026-04-22 17:37 43.63535 9.76615 15013 ft 328 kts 181°
2026-04-22 17:38 43.62006 9.76655 14574 ft 324 kts 181°
2026-04-22 17:38 43.59791 9.76711 13926 ft 319 kts 181°
2026-04-22 17:38 43.57593 9.76883 13254 ft 316 kts 169°
2026-04-22 17:38 43.55650 9.78140 12570 ft 314 kts 138°
2026-04-22 17:39 43.54449 9.80532 12047 ft 303 kts 108°
2026-04-22 17:39 43.53881 9.84284 11211 ft 296 kts 96°
2026-04-22 17:39 43.53336 9.89613 10573 ft 267 kts 97°
2026-04-22 17:40 43.53134 9.91299 10245 ft 265 kts 97°
2026-04-22 17:40 43.52694 9.94675 9089 ft 279 kts 98°
2026-04-22 17:40 43.52451 9.96435 8557 ft 282 kts 98°
2026-04-22 17:40 43.52078 9.99053 7950 ft 278 kts 98°
2026-04-22 17:41 43.51706 10.01615 7379 ft 273 kts 98°
2026-04-22 17:41 43.51331 10.04186 6793 ft 269 kts 98°
2026-04-22 17:41 43.50970 10.06647 6228 ft 264 kts 98°
2026-04-22 17:41 43.50488 10.09920 5474 ft 259 kts 98°
2026-04-22 17:42 43.50250 10.11538 5100 ft 256 kts 98°
2026-04-22 17:42 43.49787 10.14681 4368 ft 251 kts 98°
2026-04-22 17:42 43.49554 10.16261 3999 ft 248 kts 99°
2026-04-22 17:42 43.49376 10.18552 3440 ft 242 kts 79°
2026-04-22 17:43 43.50433 10.21088 2942 ft 233 kts 39°
2026-04-22 17:43 43.51280 10.21974 2706 ft 234 kts 36°
2026-04-22 17:43 43.52600 10.23265 2332 ft 233 kts 36°
2026-04-22 17:43 43.54351 10.24985 1996 ft 230 kts 37°
2026-04-22 17:44 43.55203 10.25825 1978 ft 224 kts 36°
2026-04-22 17:44 43.56428 10.27064 1971 ft 208 kts 38°
2026-04-22 17:44 43.57554 10.28233 1981 ft 203 kts 38°
2026-04-22 17:44 43.59066 10.29808 1979 ft 204 kts 38°
2026-04-22 17:45 43.59831 10.30602 1840 ft 203 kts 38°
2026-04-22 17:45 43.61281 10.32100 1570 ft 191 kts 38°
2026-04-22 17:45 43.62326 10.33178 1283 ft 185 kts 38°
2026-04-22 17:45 43.63307 10.34189 1048 ft 168 kts 38°
2026-04-22 17:46 43.63885 10.34785 897 ft 157 kts 39°
2026-04-22 17:46 43.64696 10.35622 674 ft 140 kts 39°
2026-04-22 17:46 43.65441 10.36391 497 ft 134 kts 39°
2026-04-22 17:46 43.66183 10.37169 331 ft 133 kts 40°
2026-04-22 17:47 43.66927 10.37930 150 ft 132 kts 39°
2026-04-22 17:47 43.67671 10.38693 16 ft 128 kts 39°
2026-04-22 17:47 43.68303 10.39367 9 ft 97 kts 42°
2026-04-22 17:47 43.68673 10.39737 9 ft 17 kts 37°
2026-04-22 17:48 43.68766 10.39786 9 ft 14 kts 319°
2026-04-22 17:48 43.68830 10.39672 9 ft 16 kts 305°
2026-04-22 17:48 43.68974 10.39715 9 ft 21 kts 37°
2026-04-22 17:48 43.69057 10.39805 9 ft 23 kts 35°
2026-04-22 17:49 43.69276 10.39910 9 ft 25 kts 354°
2026-04-22 17:49 43.69391 10.39891 9 ft 26 kts 358°
2026-04-22 17:49 43.69574 10.39926 10 ft 19 kts
2026-04-22 17:49 43.69695 10.39909 12 ft 11 kts 294°
2026-04-22 17:50 43.69707 10.39848 12 ft 8 kts 323°
2026-04-22 17:50 43.69751 10.39855 12 ft 4 kts 13°
2026-04-22 17:50 43.69760 10.39858 12 ft 0 kts 12°
2026-04-22 17:50 43.69763 10.39858 12 ft 2 kts 10°
2026-04-22 17:51 43.69764 10.39859 12 ft 0 kts